Helicity
8 14 26 35 74 79 79 89 144 124 140 96 153 200 134 315 189 157 45 95 77 51 26 8 10 18 20 38 51 56 74 83 82 84 94 81 66 42 31 31 32 36 44 39 34 32 32 36 33
27 23 29 51 78 63 46 97 130 149 101 105 217 181 114 180 120 57 82 61 34 45 15 13 14 23 25 36 44 63 73 66 65 82 77 62 42 25 19 21 26 34 37 34 35 38 39 39 37
21 33 31 50 40 42 60 69 131 123 190 213 303 250 137 112 48 106 57 37 17 51 13 16 14 17 29 40 63 72 60 61 79 71 55 38 31 23 19 20 20 26 33 36 35 35 32 35 40
29 34 45 16 31 90 96 112 134 134 181 171 82 106 5 -5 114 83 21 30 55 36 -2 9 5 21 35 61 60 56 63 76 70 50 34 28 21 16 15 18 18 29 32 36 36 37 36 38 40
36 50 33 24 64 81 85 89 99 163 214 140 4 26 16 17 18 33 63 26 55 16 17 4 2 26 41 45 47 65 68 60 41 29 24 19 15 16 18 18 28 32 36 30 33 32 39 42 42
38 60 17 31 58 82 49 81 98 90 50 -25 -56 -3 18 26 12 41 -16 34 25 -9 15 19 15 22 26 47 61 63 51 31 24 22 19 15 19 19 22 22 32 36 39 41 43 39 38 32 32
52 40 36 57 73 83 114 69 136 175 28 -4 -10 47 48 16 7 37 28 6 -40 -25 12 8 6 11 34 56 54 47 28 22 22 21 19 17 20 19 28 34 44 41 44 49 44 38 30 26 26
52 60 45 68 45 92 68 68 60 41 37 18 11 -11 32 39 41 6 -5 -30 -16 7 5 7 3 10 20 33 44 28 22 19 21 20 16 20 21 25 29 29 42 44 47 49 49 42 34 37 40
33 61 43 35 21 102 132 196 130 17 -21 22 23 25 92 123 83 45 30 -13 -4 9 11 4 13 25 35 32 29 23 23 20 20 16 12 1 8 19 18 61 46 46 47 52 58 58 49 36 60
28 15 41 26 91 91 147 160 269 -20 8 13 33 71 146 114 63 21 -7 -14 -13 -4 -1 17 34 50 36 28 20 15 16 4 4 3 1 1 13 22 28 45 41 47 46 59 59 59 43 31 61
10 14 52 26 24 8 7 160 -20 31 -12 -3 -11 74 88 49 7 -5 -9 -13 -23 -5 26 41 60 58 44 33 18 10 5 -2 -0 5 6 22 22 23 28 36 37 43 53 51 59 60 71 87 78
-18 29 32 58 66 -41 18 -93 -41 -16 3 4 6 108 44 19 5 -8 -13 -14 -12 9 37 50 54 43 39 29 23 16 11 9 12 18 18 24 24 36 41 42 37 42 56 65 67 77 87 93 102
45 28 37 -18 -27 -14 -4 -14 -3 -15 -2 10 25 10 -10 -23 -13 -21 -21 -6 4 13 27 24 19 22 29 32 28 25 21 20 25 16 22 31 37 46 50 64 57 67 62 73 90 109 105 103 103
6 8 -6 -19 -12 -2 -0 -10 15 -12 -11 -21 3 -19 -24 -21 -8 -2 -17 -26 -20 -10 1 12 19 26 26 36 42 33 36 37 22 12 36 65 79 92 101 109 104 112 109 129 142 132 131 127 98
-0 8 43 22 15 -27 -6 2 17 9 -18 -24 -51 -35 -30 -35 -37 -44 -56 -53 -17 4 31 45 56 42 58 79 90 83 98 48 5 20 55 85 63 74 78 70 114 147 146 134 145 149 142 122 126
-4 3 3 9 -8 -69 21 26 40 26 -7 2 -22 -45 -40 -57 -55 -57 -55 -37 -7 20 50 98 136 170 170 197 235 181 138 61 12 15 43 41 71 68 57 81 119 115 146 155 146 149 151 152 141
-3 -9 20 32 -46 -59 -13 41 41 49 7 20 29 23 17 10 -14 -35 -28 -3 15 48 99 151 189 264 321 412 350 205 67 8 66 -22 -13 21 47 69 77 104 124 125 135 158 154 159 142 137 139
1 32 27 37 10 8 7 13 35 38 4 15 24 39 48 41 23 27 20 30 48 91 137 177 244 275 235 179 261 18 -85 27 52 39 45 51 58 60 63 91 109 113 133 136 132 110 110 97 108
-9 -23 -1 21 36 16 -0 23 28 38 31 17 22 34 51 58 66 74 75 86 95 128 139 126 147 153 124 79 63 -7 -4 42 56 54 51 48 58 60 75 96 109 101 122 109 96 104 111 103 112
6 -12 30 31 24 19 26 45 39 46 50 36 47 47 57 68 81 70 79 80 81 76 84 88 84 49 11 -5 14 25 32 52 69 77 88 88 87 95 103 123 128 126 116 108 104 96 93 87 113
40 28 10 16 25 31 -7 -6 34 52 55 75 79 90 83 91 102 112 113 109 96 78 58 49 42 19 16 42 52 61 61 77 70 93 102 136 135 137 137 142 149 143 123 132 119 122 110 124 113
33 58 28 3 -16 -12 13 9 55 62 82 92 93 90 117 124 142 139 129 146 112 79 58 36 16 24 43 53 88 97 76 100 155 163 179 189 161 147 145 148 148 142 135 126 119 130 128 130 146
25 17 19 4 -4 -6 -3 -3 109 79 82 122 121 122 124 136 148 149 131 93 84 91 80 70 99 112 144 116 88 105 138 151 171 179 158 130 108 109 124 137 140 137 138 150 150 135 132 127 158
30 -6 8 1 11 -9 39 25 13 62 49 99 103 112 129 135 129 109 96 91 89 102 127 117 132 118 107 125 136 166 176 165 143 114 89 117 121 135 142 132 132 128 133 127 135 138 118 107 89
-49 -64 -11 -7 7 15 75 18 4 70 32 46 62 74 73 96 88 84 79 74 103 101 112 101 125 145 155 168 180 168 169 142 97 99 139 128 150 148 130 124 110 116 130 130 121 107 73 46 51
5 6 14 17 16 27 25 11 36 37 28 39 51 69 90 86 78 68 69 86 101 110 112 119 145 178 186 199 170 144 148 124 113 150 137 140 128 123 132 125 118 116 102 87 96 90 71 66 79
28 24 84 55 43 16 17 15 8 30 29 57 78 92 92 86 87 72 77 90 124 131 150 162 187 221 239 227 182 164 134 154 156 124 105 108 119 121 130 128 127 124 92 77 77 90 89 85 87
65 74 38 41 14 21 22 17 38 29 45 59 71 86 108 111 102 89 98 126 145 178 206 244 258 242 221 207 190 128 119 145 138 126 127 140 145 148 142 131 122 112 101 69 90 113 94 74 98
74 56 55 52 52 44 38 39 49 57 45 54 79 102 128 127 127 146 161 188 220 249 261 257 239 275 287 215 94 116 155 150 133 139 158 164 137 121 108 101 98 102 106 75 81 92 96 91 94
72 38 35 45 32 57 45 29 68 57 40 64 100 136 154 148 172 186 219 226 258 274 274 288 279 287 224 35 129 150 132 121 137 154 155 138 110 100 94 99 106 108 111 102 147 97 101 109 110
Wind_Speed
31 33 35 30 35 39 53 47 37 33 35 27 26 29 23 33 27 27 9 7 9 12 19 27 30 32 31 30 29 29 24 23 25 28 31 33 34 36 38 39 40 41 41 42 42 44 45 46 47
32 30 28 31 41 47 45 38 41 32 16 17 22 26 26 25 24 13 6 8 13 14 14 29 32 31 29 28 27 23 20 20 22 26 29 31 33 35 37 38 40 41 42 43 44 45 46 46 47
30 29 30 32 38 49 44 31 19 10 15 19 28 31 35 26 15 14 6 12 11 8 20 29 32 30 28 26 22 18 16 18 21 24 27 30 33 35 37 38 40 40 41 42 43 45 45 47 48
26 24 32 38 37 35 37 17 6 7 16 24 14 18 28 18 14 6 7 4 9 7 25 30 29 27 26 24 18 16 15 18 19 22 27 31 33 34 35 37 39 40 41 42 43 44 45 47 49
25 31 33 40 34 31 23 7 8 11 19 22 18 21 27 23 13 7 8 1 5 20 20 28 25 24 23 18 13 13 16 17 19 24 27 29 30 33 35 36 38 39 40 41 43 43 45 46 49
23 33 33 40 32 30 20 11 10 12 17 20 32 14 22 18 10 10 12 5 11 37 24 22 20 20 18 13 12 14 15 18 21 24 26 27 29 32 34 36 37 38 40 41 42 43 45 46 48
32 30 37 34 29 23 15 20 10 15 21 24 28 20 26 17 15 12 22 33 46 38 21 19 20 17 12 12 14 14 16 18 20 22 24 26 29 31 33 36 36 37 38 39 41 42 44 46 47
33 33 32 31 25 26 17 23 12 19 37 24 24 29 27 9 19 40 44 45 31 14 11 13 13 12 11 13 14 15 15 17 19 20 23 25 28 30 31 33 35 36 36 37 39 41 43 45 46
27 31 33 29 25 19 18 23 26 25 21 26 24 26 21 15 42 36 32 34 23 7 7 8 9 12 14 15 14 15 15 16 18 20 22 23 25 27 29 33 33 35 36 37 39 39 42 41 40
25 34 31 32 14 10 23 33 30 26 28 28 21 23 23 28 38 36 42 44 34 19 12 7 12 13 14 15 15 15 15 16 18 19 21 23 27 30 33 33 35 34 35 36 39 39 40 37 41
22 39 28 23 15 20 25 38 33 36 32 30 17 15 46 53 48 51 51 44 36 16 5 9 12 14 15 15 15 16 16 16 18 19 22 26 30 32 35 35 35 35 36 35 38 39 42 45 45
27 38 25 14 11 16 7 17 25 36 31 28 36 48 55 55 53 56 56 52 42 25 15 13 14 14 16 17 17 18 17 16 18 20 24 28 30 35 39 40 39 36 38 39 42 42 45 46 46
45 19 26 6 10 19 10 7 24 19 23 10 36 46 42 34 32 41 38 32 23 18 15 16 15 16 17 18 17 18 19 20 24 25 29 32 34 37 40 43 44 39 38 43 45 46 48 49 49
16 32 15 34 14 14 15 13 29 18 19 16 36 33 25 23 27 27 25 22 16 14 13 15 16 17 17 18 20 21 23 27 31 34 39 43 38 33 42 35 36 37 43 46 47 51 52 53 55
14 26 12 32 46 14 39 12 14 28 12 21 21 28 23 21 23 25 21 14 12 12 12 14 16 19 19 19 21 24 28 32 36 39 40 38 41 32 29 30 38 42 45 46 48 53 56 59 60
25 23 14 12 42 35 46 10 29 39 10 15 14 16 26 21 18 14 13 13 12 12 11 13 14 17 19 22 25 25 29 39 44 45 40 34 35 34 35 37 40 41 47 50 54 57 61 65 68
27 27 14 10 32 17 17 13 32 38 49 33 38 29 27 21 18 16 18 20 18 12 10 10 10 13 18 28 47 33 36 40 34 33 32 35 36 39 40 42 44 48 50 53 59 64 68 72 73
32 20 10 11 16 28 20 16 31 40 45 44 36 27 21 15 15 19 20 21 17 12 9 9 11 13 19 32 35 44 42 27 28 31 35 36 38 39 42 45 48 52 56 60 65 69 70 74 75
18 13 11 12 15 12 15 22 36 34 28 23 25 12 11 15 20 21 22 20 18 14 12 11 13 15 24 32 31 24 23 25 29 32 35 37 39 44 49 50 52 55 60 63 65 67 70 70 69
17 14 15 22 27 36 19 11 25 13 12 5 9 10 12 15 18 21 22 20 19 16 15 14 16 18 19 24 23 25 25 29 29 33 37 40 43 46 48 50 53 56 59 59 62 65 69 70 71
19 19 14 23 27 34 46 46 17 25 17 15 12 12 12 14 17 20 21 21 21 21 21 19 19 20 22 23 25 28 29 30 33 36 39 44 46 49 53 54 57 59 60 63 66 69 74 79 76
29 32 30 26 51 47 45 46 16 16 18 14 11 8 10 12 15 18 19 21 23 24 24 22 21 21 21 22 24 26 33 36 41 44 45 48 51 53 55 56 57 59 63 67 70 71 73 75 83
36 34 35 42 48 48 44 52 25 18 17 12 7 4 6 9 13 16 20 22 24 25 24 24 24 25 25 25 27 29 34 37 40 45 49 51 51 53 56 57 59 63 65 69 70 70 72 73 75
20 32 35 40 45 56 46 50 46 28 26 10 5 8 10 10 17 23 23 23 22 22 22 22 23 24 25 27 29 32 35 40 45 49 53 56 59 60 60 61 63 65 67 67 67 67 69 70 71
45 44 44 46 48 50 36 44 53 30 28 10 19 21 20 22 26 24 21 18 17 17 19 20 21 23 25 28 32 34 37 41 47 54 59 64 66 67 67 67 67 67 65 63 64 68 69 69 70
42 47 46 46 44 41 34 36 31 30 29 17 22 24 24 24 24 21 17 14 14 16 16 17 19 23 26 29 31 34 40 48 54 60 64 66 66 67 70 71 68 66 67 66 66 67 68 68 65
38 44 38 39 40 44 37 34 29 30 24 17 19 22 22 19 14 14 12 11 12 14 16 17 20 24 28 32 36 39 44 52 59 63 65 65 66 69 70 70 70 70 71 67 66 67 70 67 60
41 21 37 39 43 45 32 36 29 22 18 15 16 17 13 10 7 7 9 12 13 15 18 21 24 27 31 35 40 43 48 53 59 60 64 67 69 71 72 73 73 71 70 67 66 66 65 64 59
33 37 38 38 39 37 33 26 26 24 18 11 9 9 7 3 5 8 12 16 17 17 19 22 25 30 36 41 45 44 50 55 58 62 64 67 69 73 76 77 76 74 72 66 65 64 64 61 48
43 44 27 41 28 30 33 35 23 24 26 18 10 4 4 5 8 12 14 15 17 19 22 25 28 36 43 41 42 50 54 57 60 62 65 68 74 76 77 76 74 71 67 63 65 63 57 44 39
Wind_Direction
299 294 291 300 290 286 277 282 295 299 307 313 310 305 303 312 302 302 341 307 114 101 99 109 103 99 93 85 80 77 61 48 43 43 45 43 37 39 44 45 38 34 35 36 33 27 21 17 12
296 298 300 301 285 278 284 292 285 294 322 342 326 317 305 309 328 344 46 96 109 102 99 106 105 100 95 89 82 66 47 37 34 38 41 40 40 43 48 47 41 39 37 34 30 26 22 19 13
295 290 297 297 287 281 291 299 303 348 335 337 306 315 301 315 340 327 32 110 103 98 93 100 104 100 95 87 73 49 32 22 27 34 34 37 40 45 45 41 41 38 36 34 29 26 24 18 13
295 304 296 287 288 298 298 313 353 342 326 328 6 329 299 348 351 331 76 98 101 96 93 102 101 98 92 82 63 43 17 12 14 26 36 40 45 46 43 43 40 39 35 32 29 27 22 18 13
294 293 295 284 287 298 306 352 72 323 320 325 317 313 322 327 339 16 96 133 132 93 86 97 93 89 84 71 38 6 1 12 27 37 40 43 43 40 40 40 39 41 37 31 27 23 21 18 15
294 293 298 282 286 291 289 296 323 333 329 344 295 341 326 351 35 81 83 164 96 107 91 87 81 78 71 42 6 360 9 33 44 46 44 43 41 41 41 38 37 39 36 32 28 23 18 15 13
287 292 297 297 292 293 281 286 305 330 321 299 310 322 318 326 57 74 99 107 118 108 90 84 84 72 36 349 349 8 32 31 33 36 40 42 41 40 36 31 31 34 31 27 21 17 14 11 9
290 295 301 298 292 293 278 282 314 298 291 328 333 309 310 318 84 111 115 116 105 87 76 71 65 48 346 349 7 31 29 31 38 38 39 39 40 33 31 29 25 25 24 19 16 11 8 9 9
299 296 293 298 291 296 290 278 299 293 310 349 318 336 354 90 116 113 109 110 102 77 63 44 20 323 322 358 19 28 19 23 32 41 41 42 28 25 22 11 15 15 14 10 6 6 3 6 10
297 293 297 305 315 307 294 283 285 313 295 329 337 350 67 96 113 112 119 123 116 101 82 10 311 329 360 16 39 29 32 41 42 37 32 19 9 2 357 2 2 8 8 6 359 359 358 2 359
306 288 317 315 319 301 299 259 249 277 292 311 338 48 110 119 117 124 129 123 117 94 338 321 348 12 20 20 24 33 39 45 39 25 14 5 355 354 352 351 355 357 359 0 357 354 352 350 349
300 284 322 45 333 317 20 90 291 270 308 280 198 116 121 125 125 133 133 130 120 98 67 39 21 23 14 25 34 35 33 28 21 8 360 353 351 347 345 341 346 355 354 352 349 348 346 344 344
219 8 270 339 28 296 23 327 277 293 252 273 88 110 108 101 100 112 111 104 89 78 61 53 44 39 34 29 23 14 9 360 350 349 346 344 344 346 341 336 335 352 354 346 342 343 341 339 337
319 157 172 221 43 321 175 294 228 265 221 45 89 93 87 85 94 95 95 91 75 55 50 45 46 37 36 23 12 8 356 346 336 332 327 330 334 345 335 352 352 353 345 342 340 339 337 335 331
56 261 16 187 149 22 114 358 325 221 247 59 67 83 80 77 80 92 88 66 47 43 36 41 36 40 34 26 11 0 351 344 341 336 336 341 334 357 4 0 347 345 343 341 339 336 333 329 328
252 69 315 6 126 110 161 317 239 210 34 59 56 63 84 71 66 33 25 4 0 7 23 50 39 29 16 12 358 358 350 347 335 333 349 11 356 1 358 355 352 350 346 341 338 335 331 327 324
246 256 293 345 122 69 157 327 244 226 157 110 118 100 95 75 61 11 348 332 335 9 34 40 36 13 357 342 320 322 327 342 353 19 25 19 7 1 357 353 352 345 343 339 335 330 328 324 322
267 270 320 345 54 112 88 327 246 228 146 143 128 108 94 72 15 352 347 346 356 7 21 22 11 356 345 332 335 323 329 15 22 23 18 15 10 4 358 352 349 343 338 333 331 329 327 325 324
337 346 20 12 306 352 309 280 242 254 130 126 126 81 9 351 347 352 352 354 359 10 2 2 354 350 339 336 346 0 14 23 24 21 14 7 3 356 351 348 346 344 338 335 334 334 332 331 330
320 340 319 279 265 246 135 359 286 0 330 333 325 333 346 356 3 0 2 12 13 23 27 27 13 6 5 359 17 9 9 7 11 7 7 5 1 356 353 349 344 343 340 339 338 336 333 331 331
311 304 344 280 262 250 217 221 321 315 341 330 332 342 0 2 3 13 21 25 36 47 50 46 38 37 26 18 11 5 5 6 358 356 355 355 354 351 347 344 341 339 338 336 334 333 331 327 329
269 260 263 257 180 198 235 245 335 339 339 341 331 341 356 15 24 21 46 50 49 49 49 43 43 36 27 16 6 0 349 345 346 344 347 347 346 345 343 341 340 337 335 333 332 332 331 330 325
247 251 253 238 233 244 266 248 320 337 330 327 336 12 32 40 38 66 72 68 63 56 50 41 30 20 17 12 5 358 352 350 348 346 343 342 343 342 340 339 337 335 333 332 332 331 331 330 328
279 261 265 256 255 243 271 275 295 322 321 343 91 109 99 75 93 101 91 81 67 55 50 46 40 34 27 18 11 2 355 350 345 343 341 340 339 339 338 336 334 333 332 331 332 332 331 330 328
239 246 253 255 259 268 306 296 281 323 325 48 123 127 121 115 118 113 103 87 67 60 53 47 43 31 24 16 7 1 355 350 345 342 339 337 336 336 335 335 333 332 332 331 331 330 329 328 326
265 255 257 268 275 287 303 291 306 311 321 34 117 123 121 122 121 118 108 85 64 50 44 35 28 19 14 11 6 358 351 344 340 339 337 336 335 335 335 333 333 332 330 328 328 328 328 329 328
281 269 285 285 287 276 282 293 321 326 346 52 103 122 129 126 113 110 90 69 49 33 26 21 15 10 5 359 355 349 345 342 338 337 336 336 335 334 333 333 331 330 328 327 327 328 328 329 328
278 313 282 274 262 254 294 296 323 4 26 68 110 129 128 117 90 72 42 27 22 18 16 13 7 2 359 353 350 346 343 342 340 340 338 338 337 337 336 334 332 330 330 328 327 328 330 329 330
288 282 276 273 272 279 296 331 346 358 29 67 91 123 125 82 23 14 6 6 9 15 14 9 3 359 354 349 344 344 344 343 342 340 340 340 340 338 336 334 333 331 330 329 329 328 330 328 328
274 269 288 271 296 303 313 323 356 353 349 356 11 56 1 345 348 353 356 359 1 1 0 358 355 352 346 346 347 344 342 341 341 341 341 340 339 338 337 336 335 334 333 333 331 330 330 331 331